Regional Weather Roundup
Issued by NWS

Home | Current Version | Previous Version | Graphics & Text | Print | Product List | Glossary On
Versions: 1 2 3 4 5 6 7 8 9 10 11 12 13 14 15 16 17 18 19 20 21 22 23 24 25 26 27 28 29 30 31 32 33 34 35 36 37 38 39 40 41 42 43 44 45 46 47 48 49 50
000
ASUS43 KLMK 090310
RWRKY
KENTUCKY REGIONAL WEATHER ROUNDUP
NATIONAL WEATHER SERVICE LOUISVILLE KY
1000 PM EST MON FEB 08 2016

NOTE "FAIR" INDICATES FEW OR NO CLOUDS BELOW 12,000 FEET
WITH NO SIGNIFICANT WEATHER AND/OR OBSTRUCTIONS TO VISIBILITY.

KYZ001>023-026-027-061>063-070>075-090400-
WESTERN AND SOUTH CENTRAL KENTUCKY

CITY           SKY/WX    TMP DP  RH WIND       PRES   REMARKS
PADUCAH        CLOUDY    27  20  75 NW6       29.93F WCI  20
HENDERSON      CLOUDY    25  18  74 NW9G17    29.91S WCI  15
OWENSBORO      FLURRIES  24  17  74 NW16      29.90F WCI  11
HOPKINSVILLE   FLURRIES  27  19  73 NW10G18   29.91S WCI  17
BOWLING GREEN  CLOUDY    28  20  71 W10G21    29.88F WCI  19
GLASGOW        FLURRIES  27  22  84 W10G18    29.85F WCI  17
$$

KYZ024-025-028>034-038-045-046-053-090400-
NORTH CENTRAL KENTUCKY

CITY           SKY/WX    TMP DP  RH WIND       PRES   REMARKS
LOUISVILLE/SDF LGT SNOW  26  21  81 W18       29.83R WCI  13
LOUISVILLE/LOU LGT SNOW  25  18  74 W15       29.83S WCI  13
FORT KNOX      LGT SNOW  23  19  86 W14G20    29.81S FOG     WCI  11
$$

KYZ035>037-039>044-047>052-055>060-089>105-090400-
NORTHEAST KENTUCKY

CITY           SKY/WX    TMP DP  RH WIND       PRES   REMARKS
LEXINGTON      LGT SNOW  26  23  88 W8        29.77S FOG     WCI  18
COVINGTON      LGT SNOW  27  21  80 W15       29.73S FOG     WCI  15
FRANKFORT      LGT SNOW  26  21  81 W10       29.77S WCI  16
$$

KYZ054-064>069-076>088-106>120-090400-
SOUTHEAST KENTUCKY

CITY           SKY/WX    TMP DP  RH WIND       PRES   REMARKS
JACKSON        LGT SNOW  30  26  85 W5        29.71S FOG     WCI  25
LONDON         LGT SNOW  29  26  89 W8        29.76S FOG     WCI  21
SOMERSET       LGT SNOW  28  25  86 NW10G21   29.82R WCI  19
MIDDLESBORO    LGT SNOW  30  26  84 NW8       29.77S WCI  22
MONTICELLO     FLURRIES  28  24  85 W14G21    29.83S WCI  17
$$




USA.gov is the U.S. government's official web portal to all federal, state and local government web resources and services.